[[{"header":{"parameterUnit":"m.s-1","parameterCategory":2,"la1":30.2992,"la2":30.254,"lo1":-89.0895,"lo2":-89.0443,"dy":0.0025,"dx":0.0025,"nx":19,"ny":19,"refTime":"2026-05-06T21:00:00:Z","depth":"0","parameterNumber":2,"parameterNumberName":"U-component_of_CURRENTS"},"data":[0,0,0,0.0668,0.0666,0.0548,0.0547,0.0418,0.0417,0,0,0,0,0,0,0,0,0,0,0,0.0693,0.0692,0.0668,0.0666,0.0548,0.0547,0.0418,0.0417,0,0,0,0,0,0,0,0,0,0,0,0.0694,0.0693,0.0692,0.0666,0.0548,0.0547,0.0419,0.0497,0,0,0,0,0,0,0,0,0,0,0.0607,0.0639,0.0693,0.0692,0.0665,0.0548,0.0547,0.05,0.0492,0.0484,0,0.0465,0,0.0454,0.0411,0.0411,0,0,0,0.0645,0.0646,0.0616,0.0692,0.0664,0.0549,0.0595,0.0496,0.0486,0.0474,0.0463,0.0458,0.0452,0.0411,0.041,0.0333,0.0333,0,0,0.0652,0.0669,0.0622,0.061,0.0632,0.0599,0.0592,0.0489,0.0479,0.0463,0.0455,0.045,0.041,0.0409,0.0333,0.0333,0,0,0,0.0684,0.0673,0.0645,0.0616,0.0601,0.0596,0.0588,0.0483,0.0474,0.0454,0.0449,0.0409,0.0408,0.0333,0.0333,0.0316,0,0,0,0.0687,0.0694,0.0648,0.0657,0.0603,0.054,0.0584,0.048,0.0469,0.0449,0.0409,0.0407,0.0333,0.0333,0.0316,0.0281,0,0,0,0.0699,0.0696,0.0682,0.0658,0.0618,0.0541,0.0525,0.0477,0.0467,0.0411,0.0407,0.0333,0.0333,0.0317,0.0283,0.0247,0,0,0,0.0721,0.0668,0.0682,0.0621,0.062,0.0534,0.0525,0.0462,0.0413,0.0409,0.0333,0.0333,0.0317,0.0284,0.0248,0.0192,0.018,0,0,0.0661,0.0661,0.0624,0.0633,0.0541,0.0549,0.047,0.0415,0.0408,0.0365,0.0363,0.0316,0.0283,0.0247,0.0172,0.016,0,0,0,0.0609,0.0582,0.0554,0.051,0.0468,0.0432,0.04,0.0394,0.0354,0.0382,0.0314,0.0293,0.0271,0.0241,0.0232,0.0226,0.0331,0.0331,0.0331,0.057,0.0537,0.0463,0.0419,0.0381,0.0352,0.0326,0.0318,0.0322,0.0317,0.0279,0.0234,0.0204,0.0196,0.0191,0.0293,0.0293,0.0293,0.0293,0.0487,0.0446,0.041,0.0325,0.0305,0.0259,0.0249,0.0261,0.023,0.0256,0.0237,0.0223,0.0184,0.0183,0.0292,0.0292,0.0292,0.0292,0.0292,0.048,0.0448,0.0393,0.0289,0.0228,0.0206,0.0146,0.0162,0.0188,0.0173,0.0129,0.0129,0.0126,0.0163,0.0163,0.0162,0.0162,0.0162,0.0162,0.0495,0.043,0.0345,0.025,0.0184,0.012,0.0078,0.0055,0.0051,0.0078,0.0078,0.0101,0.0194,0.0197,0.0157,0.0158,0.0158,0.0159,0.0159,0.0452,0.0437,0.0305,0.0223,0.0067,-0.0026,-0.0045,-0.0104,-0.0102,-0.0114,-0.0033,0.0032,0.0022,0.003,0.0028,-0.0053,-0.0053,-0.0053,-0.0053,0.0445,0.0424,0.024,0.0096,-0.0031,-0.0107,-0.0226,-0.0244,-0.0195,-0.0151,-0.0122,-0.0091,-0.0082,-0.0095,-0.0084,-0.0087,-0.0196,-0.0196,-0.0196,0.0399,0.0353,0.0215,0.0066,-0.0096,-0.0196,-0.0316,-0.037,-0.0257,-0.0199,-0.0121,-0.0115,-0.0061,-0.0047,-0.0057,-0.0042,-0.0042,0,0]},{"header":{"parameterUnit":"m.s-1","parameterCategory":2,"la1":30.2992,"la2":30.254,"lo1":-89.0895,"lo2":-89.0443,"dy":0.0025,"dx":0.0025,"nx":19,"ny":19,"refTime":"2026-05-06T21:00:00:Z","depth":"0","parameterNumber":3,"parameterNumberName":"V-component_of_CURRENTS"},"data":[0,0,0,-0.182,-0.1822,-0.1891,-0.1891,-0.1883,-0.1883,0,0,0,0,0,0,0,0,0,0,0,-0.1794,-0.1795,-0.182,-0.1822,-0.1891,-0.1891,-0.1883,-0.1883,0,0,0,0,0,0,0,0,0,0,0,-0.1794,-0.1795,-0.1796,-0.1823,-0.189,-0.1891,-0.1883,-0.1853,0,0,0,0,0,0,0,0,0,0,-0.1797,-0.1766,-0.1795,-0.1796,-0.1823,-0.189,-0.1891,-0.1852,-0.1855,-0.1828,0,-0.185,0,-0.187,-0.1881,-0.1881,0,0,0,-0.1812,-0.1764,-0.181,-0.1796,-0.1824,-0.189,-0.1857,-0.1854,-0.1857,-0.1831,-0.185,-0.1851,-0.187,-0.1881,-0.1881,-0.1879,-0.1879,0,0,-0.1808,-0.1775,-0.1809,-0.1812,-0.1854,-0.1855,-0.1859,-0.1857,-0.1845,-0.185,-0.1851,-0.187,-0.1881,-0.1881,-0.1879,-0.1879,0,0,0,-0.1804,-0.1772,-0.182,-0.1811,-0.1834,-0.1857,-0.1862,-0.1845,-0.187,-0.1851,-0.187,-0.1881,-0.1881,-0.1879,-0.1879,-0.1878,0,0,0,-0.1801,-0.1772,-0.1818,-0.1795,-0.1835,-0.1847,-0.185,-0.187,-0.1871,-0.187,-0.1881,-0.188,-0.1879,-0.1879,-0.1877,-0.1862,0,0,0,-0.1789,-0.1769,-0.1788,-0.1794,-0.1832,-0.1849,-0.1872,-0.1871,-0.1882,-0.1881,-0.188,-0.1878,-0.1879,-0.1877,-0.1862,-0.1816,0,0,0,-0.1738,-0.1764,-0.1787,-0.1823,-0.1832,-0.1886,-0.1872,-0.1889,-0.1891,-0.1881,-0.1879,-0.1879,-0.1877,-0.1862,-0.1817,-0.1725,-0.1714,0,0,-0.1746,-0.1763,-0.179,-0.1815,-0.1869,-0.1875,-0.1898,-0.189,-0.1886,-0.187,-0.1871,-0.1878,-0.1862,-0.1816,-0.1748,-0.1736,0,0,0,-0.1778,-0.1793,-0.1815,-0.1853,-0.1898,-0.1907,-0.1913,-0.1902,-0.1892,-0.1893,-0.1886,-0.1876,-0.1847,-0.1794,-0.1785,-0.167,-0.1881,-0.1881,-0.1881,-0.1678,-0.1754,-0.1793,-0.1875,-0.1899,-0.1922,-0.1918,-0.1903,-0.1902,-0.1897,-0.1882,-0.1855,-0.1801,-0.1793,-0.1677,-0.1898,-0.1898,-0.1898,-0.1898,-0.1683,-0.1713,-0.1782,-0.1855,-0.1885,-0.1897,-0.1903,-0.1899,-0.1867,-0.1884,-0.1856,-0.1805,-0.1782,-0.1662,-0.1898,-0.1898,-0.1898,-0.1898,-0.1898,-0.1617,-0.1647,-0.1717,-0.1814,-0.1831,-0.1867,-0.1847,-0.1861,-0.1849,-0.1835,-0.1748,-0.1747,-0.1631,-0.1813,-0.1813,-0.1813,-0.1812,-0.1812,-0.1812,-0.1521,-0.16,-0.1675,-0.1763,-0.1786,-0.1798,-0.1811,-0.1792,-0.1745,-0.1724,-0.1723,-0.1601,-0.1828,-0.1819,-0.1808,-0.1809,-0.1809,-0.181,-0.181,-0.1452,-0.1527,-0.1625,-0.1678,-0.1741,-0.1718,-0.1735,-0.1664,-0.1632,-0.1581,-0.1441,-0.1654,-0.1633,-0.164,-0.1626,-0.1566,-0.1566,-0.1565,-0.1565,-0.1395,-0.1445,-0.1599,-0.1668,-0.1691,-0.1682,-0.1603,-0.1528,-0.1381,-0.1267,-0.1278,-0.1274,-0.1289,-0.1248,-0.1264,-0.1244,-0.1087,-0.1086,-0.1086,-0.1355,-0.1426,-0.1507,-0.1639,-0.1671,-0.163,-0.1546,-0.1431,-0.1174,-0.1059,-0.1133,-0.1153,-0.1145,-0.1178,-0.1118,-0.115,-0.1118,0,0]}],[{"header":{"parameterUnit":"m.s-1","parameterCategory":2,"la1":30.2992,"la2":30.254,"lo1":-89.0895,"lo2":-89.0443,"dy":0.0025,"dx":0.0025,"nx":19,"ny":19,"refTime":"2026-05-06T21:00:00:Z","depth":"2","parameterNumber":2,"parameterNumberName":"U-component_of_CURRENTS"},"data":[0,0,0,0.0834,0.0835,0.0876,0.0876,0.101,0.1011,0,0,0,0,0,0,0,0,0,0,0,0.0823,0.0823,0.0834,0.0835,0.0876,0.0876,0.101,0.1011,0,0,0,0,0,0,0,0,0,0,0,0.0823,0.0823,0.0823,0.0835,0.0876,0.0876,0.1009,0.0959,0,0,0,0,0,0,0,0,0,0,0.0909,0.0888,0.0823,0.0823,0.0835,0.0876,0.0876,0.0956,0.0962,0.1013,0,0.1018,0,0.1017,0.1022,0.1022,0,0,0,0.0839,0.0882,0.0891,0.0823,0.0835,0.0876,0.0859,0.0959,0.0966,0.1022,0.102,0.1024,0.102,0.1023,0.1023,0.1165,0.1166,0,0,0.0837,0.0836,0.0885,0.0895,0.0847,0.0857,0.086,0.0962,0.0974,0.102,0.1027,0.1022,0.1024,0.1025,0.1165,0.1166,0,0,0,0.0827,0.0835,0.0839,0.089,0.0891,0.0858,0.0861,0.097,0.097,0.1028,0.1023,0.1025,0.1026,0.1165,0.1165,0.1143,0,0,0,0.0826,0.0829,0.0838,0.0839,0.0889,0.092,0.0866,0.0963,0.0974,0.1023,0.1025,0.1028,0.1164,0.1165,0.1142,0.1112,0,0,0,0.0821,0.0828,0.0832,0.0839,0.0854,0.0918,0.0925,0.0965,0.0972,0.1022,0.1028,0.1164,0.1165,0.1142,0.1112,0.1066,0,0,0,0.082,0.0842,0.0832,0.0856,0.0853,0.0897,0.0924,0.0961,0.1001,0.1025,0.1164,0.1165,0.1142,0.1113,0.1067,0.0918,0.0902,0,0,0.0848,0.0845,0.0858,0.085,0.0892,0.0891,0.0948,0.1003,0.1037,0.1136,0.1139,0.1142,0.1112,0.1066,0.0973,0.0954,0,0,0,0.0867,0.0884,0.0893,0.0913,0.093,0.0957,0.1002,0.1027,0.1093,0.1064,0.1168,0.115,0.1121,0.1035,0.1021,0.117,0.117,0.1169,0.1169,0.0926,0.0923,0.0958,0.0968,0.0987,0.1016,0.1041,0.1091,0.112,0.1142,0.1151,0.1126,0.1038,0.1025,0.1186,0.1185,0.1185,0.1185,0.1185,0.0991,0.1007,0.1006,0.1032,0.1037,0.1069,0.1104,0.111,0.1134,0.1165,0.1137,0.1041,0.1007,0.1184,0.1184,0.1184,0.1185,0.1185,0.1185,0.104,0.1042,0.105,0.1072,0.1074,0.1074,0.1052,0.1073,0.11,0.1088,0.096,0.0959,0.1072,0.1055,0.1055,0.1054,0.1054,0.1054,0.1054,0.1071,0.1083,0.1095,0.1103,0.1081,0.1041,0.1001,0.0974,0.091,0.0909,0.0908,0.1081,0.1085,0.1065,0.1049,0.1049,0.105,0.1051,0.1051,0.1078,0.1096,0.1114,0.1102,0.1053,0.092,0.0906,0.0746,0.0731,0.0669,0.0807,0.0815,0.0795,0.0806,0.0779,0.069,0.069,0.0689,0.0689,0.1068,0.1088,0.1088,0.1067,0.101,0.0867,0.0596,0.043,0.0435,0.0422,0.0434,0.0437,0.0457,0.042,0.044,0.0407,0.022,0.022,0.0219,0.1031,0.1054,0.1026,0.1042,0.0967,0.0752,0.0367,-0.0046,-0.0097,0.0203,0.0382,0.0652,0.0691,0.0709,0.0684,0.0704,0.0663,0,0]},{"header":{"parameterUnit":"m.s-1","parameterCategory":2,"la1":30.2992,"la2":30.254,"lo1":-89.0895,"lo2":-89.0443,"dy":0.0025,"dx":0.0025,"nx":19,"ny":19,"refTime":"2026-05-06T21:00:00:Z","depth":"2","parameterNumber":3,"parameterNumberName":"V-component_of_CURRENTS"},"data":[0,0,0,0.0097,0.0096,0.0019,0.0019,0.0035,0.0036,0,0,0,0,0,0,0,0,0,0,0,0.0111,0.011,0.0097,0.0095,0.002,0.0019,0.0035,0.0036,0,0,0,0,0,0,0,0,0,0,0,0.0111,0.0111,0.011,0.0095,0.002,0.0019,0.0035,0.0062,0,0,0,0,0,0,0,0,0,0,0.0121,0.0121,0.0111,0.011,0.0095,0.002,0.0019,0.0062,0.0061,0.0104,0,0.0082,0,0.0071,0.004,0.004,0,0,0,0.0089,0.0122,0.0105,0.011,0.0094,0.002,0.0052,0.006,0.0059,0.0102,0.0082,0.0082,0.0071,0.004,0.0041,0.0126,0.0127,0,0,0.0093,0.01,0.0106,0.0103,0.0064,0.0054,0.005,0.0058,0.0054,0.0082,0.0082,0.0071,0.0041,0.0041,0.0126,0.0127,0,0,0,0.0109,0.0103,0.0082,0.0103,0.0087,0.0052,0.0047,0.0053,0.0046,0.0082,0.0071,0.0041,0.0042,0.0125,0.0126,0.011,0,0,0,0.0112,0.0113,0.0084,0.0088,0.0085,0.0054,0.0041,0.0044,0.0045,0.0071,0.0041,0.0042,0.0125,0.0126,0.011,0.0111,0,0,0,0.0116,0.0114,0.0102,0.0088,0.006,0.0053,0.0046,0.0043,0.004,0.004,0.0043,0.0125,0.0126,0.0109,0.011,0.0121,0,0,0,0.0132,0.013,0.0101,0.0104,0.006,0.0074,0.0045,0.0037,0.0036,0.0041,0.0125,0.0126,0.0109,0.011,0.0121,0.0056,0.0054,0,0,0.0148,0.0132,0.0139,0.0112,0.0127,0.0085,0.0115,0.0082,0.0073,0.0128,0.0129,0.011,0.011,0.0121,0.012,0.0115,0,0,0,0.0158,0.0151,0.0157,0.0148,0.0152,0.0147,0.0122,0.0122,0.0113,0.0078,0.0137,0.0139,0.0145,0.0106,0.0103,0.0131,0.0131,0.0131,0.0131,0.0183,0.0179,0.0187,0.018,0.0191,0.019,0.0196,0.0193,0.0167,0.0157,0.0145,0.0171,0.013,0.0127,0.0164,0.0164,0.0164,0.0164,0.0164,0.0205,0.0221,0.0194,0.0183,0.0188,0.0193,0.0237,0.0211,0.022,0.0185,0.0191,0.0116,0.0122,0.0163,0.0163,0.0163,0.0163,0.0163,0.0163,0.0243,0.0252,0.0197,0.0165,0.0146,0.0149,0.0154,0.0178,0.0197,0.0205,0.0136,0.0135,0.0152,0.0172,0.0172,0.0172,0.0172,0.0172,0.0172,0.0312,0.027,0.0209,0.0153,0.0095,0.006,0.0077,0.0103,0.0125,0.013,0.0129,0.0175,0.0174,0.0154,0.0173,0.0173,0.0173,0.0173,0.0173,0.0397,0.0335,0.0249,0.0168,0.0043,-0.0007,-0.0016,0.0006,0.0061,0.0085,0.0107,0.0109,0.011,0.0112,0.0092,0.0094,0.0094,0.0094,0.0094,0.0449,0.0421,0.026,0.0134,0.0044,-0.0026,-0.0111,-0.0072,0.0043,0.0103,0.0104,0.0085,0.0086,0.0087,0.0089,0.0069,0.0065,0.0066,0.0066,0.0486,0.0419,0.0305,0.0146,0.0027,-0.0051,-0.0193,-0.0201,0.0025,0.0071,0.0166,0.0079,0.0048,0.0052,0.0051,0.0056,0.0022,0,0]}],[{"header":{"parameterUnit":"m.s-1","parameterCategory":2,"la1":30.2992,"la2":30.254,"lo1":-89.0895,"lo2":-89.0443,"dy":0.0025,"dx":0.0025,"nx":19,"ny":19,"refTime":"2026-05-06T21:00:00:Z","depth":"4","parameterNumber":2,"parameterNumberName":"U-component_of_CURRENTS"},"data":[0,0,0,-0.0506,-0.0507,-0.0451,-0.045,-0.0331,-0.0331,0,0,0,0,0,0,0,0,0,0,0,-0.0488,-0.0488,-0.0506,-0.0507,-0.0451,-0.045,-0.0332,-0.0331,0,0,0,0,0,0,0,0,0,0,0,-0.0488,-0.0488,-0.0488,-0.0507,-0.0451,-0.045,-0.0332,-0.0369,0,0,0,0,0,0,0,0,0,0,-0.0422,-0.044,-0.0488,-0.0488,-0.0507,-0.0451,-0.045,-0.0371,-0.0367,-0.0365,0,-0.0377,0,-0.0399,-0.0328,-0.0328,0,0,0,-0.0439,-0.0443,-0.0446,-0.0488,-0.0508,-0.0452,-0.0457,-0.0368,-0.0364,-0.036,-0.0376,-0.0373,-0.0397,-0.0328,-0.0328,-0.033,-0.033,0,0,-0.0442,-0.0453,-0.0449,-0.0444,-0.0521,-0.0459,-0.0456,-0.0365,-0.0362,-0.0375,-0.0371,-0.0395,-0.0328,-0.0328,-0.0329,-0.033,0,0,0,-0.0497,-0.0456,-0.0458,-0.0448,-0.0468,-0.046,-0.0456,-0.0364,-0.0371,-0.037,-0.0393,-0.0328,-0.0327,-0.0329,-0.033,-0.029,0,0,0,-0.0495,-0.0493,-0.046,-0.0462,-0.0471,-0.0427,-0.0456,-0.0375,-0.0368,-0.0394,-0.0328,-0.0327,-0.0329,-0.0329,-0.0291,-0.0313,0,0,0,-0.0485,-0.0492,-0.0497,-0.0464,-0.0477,-0.0429,-0.0426,-0.0372,-0.0386,-0.0328,-0.0327,-0.0328,-0.0329,-0.0291,-0.0313,-0.037,0,0,0,-0.0479,-0.0487,-0.0497,-0.0498,-0.0479,-0.0438,-0.0427,-0.0329,-0.0265,-0.0327,-0.0329,-0.033,-0.0291,-0.0313,-0.0368,-0.0273,0,0,0,-0.0484,-0.0488,-0.0483,-0.0493,-0.0457,-0.0439,-0.0408,-0.0295,-0.0294,-0.0343,-0.0342,-0.0291,-0.0313,-0.0369,-0.0319,0,0,0,0,-0.0479,-0.0468,-0.0461,-0.0444,-0.0427,-0.0405,-0.0329,-0.034,-0.0307,-0.0283,-0.0318,-0.0335,-0.0371,-0.0312,-0.0333,-0.0333,-0.0333,-0.0333,-0.0333,-0.0441,-0.0431,-0.0407,-0.0389,-0.0373,-0.0347,-0.0349,-0.0361,-0.0313,-0.0304,-0.032,-0.0366,-0.0301,-0.0321,-0.0321,-0.0321,-0.0321,-0.032,-0.032,-0.0406,-0.0386,-0.0369,-0.0339,-0.0334,-0.0306,-0.0367,-0.0343,-0.0405,-0.0354,-0.0389,-0.0295,-0.0317,-0.0318,-0.0318,-0.0319,-0.0319,-0.0319,-0.0319,-0.0362,-0.0359,-0.0338,-0.0308,-0.0277,-0.0275,-0.0327,-0.0349,-0.039,-0.041,-0.0349,-0.0381,-0.0367,-0.0387,-0.0388,-0.0388,-0.0388,-0.0388,-0.0389,-0.0336,-0.0326,-0.0302,-0.0277,-0.0249,-0.0236,-0.0284,-0.0332,-0.0361,-0.0344,-0.0381,-0.0391,-0.0389,-0.0374,-0.0394,-0.0393,-0.0392,-0.0392,-0.0391,-0.0293,-0.0308,-0.029,-0.0266,-0.0222,-0.023,-0.0264,-0.0301,-0.0363,-0.0382,-0.0343,-0.0344,-0.0371,-0.0371,-0.0356,-0.0371,-0.037,-0.0369,0,-0.0269,-0.0276,-0.0262,-0.0245,-0.0229,-0.0224,-0.0249,-0.0286,-0.0338,-0.0318,-0.0412,-0.0371,-0.0369,-0.0401,-0.0398,-0.0382,0,0,0,-0.0236,-0.0252,-0.0232,-0.0236,-0.0215,-0.0221,-0.0251,-0.0251,-0.0302,-0.0305,-0.0342,-0.0349,-0.0361,-0.0409,-0.0456,-0.0453,-0.0434,0,0]},{"header":{"parameterUnit":"m.s-1","parameterCategory":2,"la1":30.2992,"la2":30.254,"lo1":-89.0895,"lo2":-89.0443,"dy":0.0025,"dx":0.0025,"nx":19,"ny":19,"refTime":"2026-05-06T21:00:00:Z","depth":"4","parameterNumber":3,"parameterNumberName":"V-component_of_CURRENTS"},"data":[0,0,0,0.0469,0.0471,0.0635,0.0637,0.0599,0.0597,0,0,0,0,0,0,0,0,0,0,0,0.0473,0.0474,0.0469,0.0471,0.0635,0.0637,0.0599,0.0597,0,0,0,0,0,0,0,0,0,0,0,0.0472,0.0474,0.0475,0.0471,0.0635,0.0637,0.0599,0.0552,0,0,0,0,0,0,0,0,0,0,0.043,0.0445,0.0474,0.0475,0.0472,0.0634,0.0637,0.0554,0.0555,0.0433,0,0.0471,0,0.0469,0.0583,0.0582,0,0,0,0.0535,0.0445,0.0465,0.0476,0.0472,0.0634,0.0579,0.0557,0.0558,0.0433,0.047,0.0469,0.0468,0.0581,0.058,0.0396,0.0395,0,0,0.0526,0.0516,0.0465,0.0467,0.0522,0.0573,0.0583,0.0561,0.0571,0.047,0.0468,0.0467,0.058,0.0578,0.0396,0.0396,0,0,0,0.0457,0.0509,0.0539,0.0468,0.0482,0.0577,0.0588,0.0576,0.058,0.0468,0.0467,0.0579,0.0576,0.0397,0.0396,0.0486,0,0,0,0.0455,0.0463,0.0535,0.0532,0.0484,0.0558,0.0602,0.0585,0.058,0.0467,0.0578,0.0574,0.0397,0.0396,0.0485,0.0496,0,0,0,0.0464,0.0463,0.0483,0.0531,0.0564,0.056,0.057,0.0588,0.0573,0.0582,0.0573,0.0397,0.0396,0.0483,0.0494,0.0433,0,0,0,0.0448,0.0488,0.0484,0.0524,0.0562,0.0585,0.0572,0.0626,0.0647,0.0577,0.0397,0.0396,0.0483,0.0493,0.0433,0.0387,0,0,0,0.0481,0.0492,0.0513,0.051,0.0553,0.0567,0.0563,0.0607,0.0572,0.0398,0.0397,0.0485,0.0494,0.0433,0.0325,0,0,0,0,0.051,0.0551,0.0558,0.0589,0.0576,0.0573,0.0588,0.0557,0.0539,0.0562,0.0438,0.0439,0.0398,0.037,0.0391,0.0391,0.0391,0.0391,0.0391,0.0582,0.0584,0.0619,0.0625,0.0617,0.0579,0.0559,0.0501,0.0494,0.0502,0.048,0.0446,0.042,0.0454,0.0454,0.0455,0.0455,0.0455,0.0455,0.0643,0.064,0.0656,0.072,0.0666,0.0665,0.0521,0.0533,0.0438,0.0472,0.043,0.0428,0.0463,0.0462,0.046,0.046,0.0459,0.0458,0.0458,0.0621,0.062,0.0721,0.0782,0.0802,0.0748,0.0641,0.0586,0.0516,0.0485,0.0424,0.0458,0.0484,0.0498,0.0497,0.0497,0.0497,0.0497,0.0497,0.0562,0.0642,0.0705,0.0822,0.0872,0.0856,0.0746,0.0614,0.0524,0.0473,0.0528,0.0458,0.0457,0.0481,0.0494,0.0494,0.0495,0.0495,0.0495,0.0531,0.0586,0.0658,0.0737,0.0809,0.0784,0.075,0.0539,0.0402,0.0277,0.0411,0.0416,0.0354,0.0354,0.0373,0.0355,0.0354,0.0354,0,0.049,0.0514,0.0611,0.0655,0.0637,0.0686,0.0526,0.0396,0.0289,0.0349,0.0301,0.0458,0.0461,0.0395,0.0394,0.0417,0,0,0,0.0489,0.0517,0.0545,0.0588,0.0584,0.046,0.0458,0.0407,0.0413,0.0205,0.0339,0.0343,0.031,0.0485,0.04,0.0398,0.043,0,0]}]]